FW9093 Weather Reports


Display with metric or nautical units.
time (UTC)temp
F
wind
direction
speed
MPH
gust
MPH
rain 1hr
in
rain 24hr
in
rain mn
in
humidity
%
barometer
mb
20260503015805 57 185 4.0 7.0 0.00 0.00 0.00 39 1011.9
20260503015305 57 157 5.0 7.0 0.00 0.00 0.00 39 1011.9
20260503014805 57 155 5.0 7.0 0.00 0.00 0.00 39 1011.9
20260503014305 57 195 4.0 7.0 0.00 0.00 0.00 38 1011.9
20260503013805 57 192 4.0 7.0 0.00 0.00 0.00 38 1011.9
20260503013305 58 157 4.0 7.0 0.00 0.00 0.00 38 1011.9
20260503012306 58 154 5.0 7.0 0.00 0.00 0.00 37 1011.9
20260503011805 58 183 3.0 6.0 0.00 0.00 0.00 36 1011.9
20260503011305 58 174 3.0 6.0 0.00 0.00 0.00 36 1011.9
20260503010804 58 161 3.0 6.0 0.00 0.00 0.00 36 1011.9
20260503010305 58 205 2.0 6.0 0.00 0.00 0.00 36 1011.9
20260503005805 59 179 4.0 7.0 0.00 0.00 0.00 36 1011.9
20260503005305 59 185 3.0 7.0 0.00 0.00 0.00 35 1011.9
20260503004804 59 198 3.0 7.0 0.00 0.00 0.00 35 1011.9
20260503004305 59 165 3.0 7.0 0.00 0.00 0.00 35 1011.9
20260503003805 60 160 3.0 7.0 0.00 0.00 0.00 34 1011.9
20260503003304 60 180 3.0 7.0 0.00 0.00 0.00 34 1011.9
20260503002805 60 179 4.0 8.0 0.00 0.00 0.00 34 1011.9
20260503002305 60 177 2.0 7.0 0.00 0.00 0.00 33 1011.9
20260503001805 60 185 3.0 6.0 0.00 0.00 0.00 33 1011.9
20260503001305 61 212 3.0 6.0 0.00 0.00 0.00 33 1011.9
20260503000805 60 186 3.0 9.0 0.00 0.00 0.00 32 1011.9
20260503000304 60 192 3.0 6.0 0.00 0.00 0.00 32 1011.9
20260502235805 60 244 3.0 8.0 0.00 0.00 0.00 31 1011.9
20260502235305 60 228 6.0 12.0 0.00 0.00 0.00 31 1011.9
20260502234805 61 184 2.0 6.0 0.00 0.00 0.00 31 1011.9
20260502234305 61 226 2.0 9.0 0.00 0.00 0.00 32 1011.9
20260502233805 61 235 2.0 9.0 0.00 0.00 0.00 31 1011.9
20260502233306 61 207 2.0 6.0 0.00 0.00 0.00 31 1011.9
20260502232805 61 177 5.0 13.0 0.00 0.00 0.00 30 1011.9
20260502232305 61 252 3.0 10.0 0.00 0.00 0.00 30 1011.9
20260502231306 62 186 3.0 6.0 0.00 0.00 0.00 31 1011.9
20260502230805 62 239 5.0 10.0 0.00 0.00 0.00 30 1011.9
20260502230305 61 265 6.0 12.0 0.00 0.00 0.00 31 1011.9
20260502225805 61 201 6.0 12.0 0.00 0.00 0.00 30 1011.9
20260502225305 61 234 6.0 13.0 0.00 0.00 0.00 30 1011.9
20260502224805 61 242 6.0 13.0 0.00 0.00 0.00 30 1011.9
20260502223804 61 207 6.0 16.0 0.00 0.00 0.00 30 1011.9
20260502223305 61 230 7.0 15.0 0.00 0.00 0.00 29 1011.9
20260502222805 61 236 4.0 16.0 0.00 0.00 0.00 30 1011.9
20260502221805 64 235 4.0 17.0 0.00 0.00 0.00 27 1011.9
20260502221305 65 273 6.0 15.0 0.00 0.00 0.00 27 1011.9
20260502220805 65 287 3.0 13.0 0.00 0.00 0.00 28 1011.9
20260502220305 65 234 7.0 17.0 0.00 0.00 0.00 27 1011.9
20260502215805 64 259 7.0 14.0 0.00 0.00 0.00 27 1011.9
20260502215305 63 223 6.0 15.0 0.00 0.00 0.00 27 1011.9
20260502214804 63 238 9.0 18.0 0.00 0.00 0.00 27 1011.9
20260502214305 64 228 7.0 13.0 0.00 0.00 0.00 26 1011.9
20260502213805 64 249 4.0 17.0 0.00 0.00 0.00 27 1011.9
20260502213305 63 226 4.0 18.0 0.00 0.00 0.00 28 1011.9
20260502212805 62 276 5.0 15.0 0.00 0.00 0.00 28 1011.9
20260502212305 63 245 7.0 20.0 0.00 0.00 0.00 27 1011.9
20260502211304 64 242 6.0 13.0 0.00 0.00 0.00 27 1011.9
20260502210804 64 220 3.0 13.0 0.00 0.00 0.00 26 1011.9
20260502205806 64 204 6.0 13.0 0.00 0.00 0.00 26 1011.9
20260502205305 64 220 6.0 17.0 0.00 0.00 0.00 30 1011.9
20260502204804 63 288 4.0 16.0 0.00 0.00 0.00 25 1011.9
20260502204305 63 172 5.0 20.0 0.00 0.00 0.00 26 1011.9
20260502203805 62 240 9.0 21.0 0.00 0.00 0.00 26 1011.9
20260502203305 62 189 7.0 21.0 0.00 0.00 0.00 26 1011.9
20260502202805 62 175 7.0 15.0 0.00 0.00 0.00 25 1011.9
20260502202305 62 230 7.0 15.0 0.00 0.00 0.00 26 1011.9
20260502201805 62 269 9.0 16.0 0.00 0.00 0.00 25 1011.9
20260502200304 62 343 2.0 12.0 0.00 0.00 0.00 30 1011.9
20260502195805 61 242 10.0 17.0 0.00 0.00 0.00 26 1011.9
20260502195305 61 209 5.0 10.0 0.00 0.00 0.00 25 1011.9
20260502194805 61 251 6.0 16.0 0.00 0.00 0.00 25 1011.9
20260502193305 61 171 6.0 13.0 0.00 0.00 0.00 26 1011.9
20260502192805 61 254 8.0 16.0 0.00 0.00 0.00 25 1011.9
20260502192305 61 250 9.0 18.0 0.00 0.00 0.00 26 1011.9
20260502191304 60 217 9.0 16.0 0.00 0.00 0.00 26 1011.9
20260502190805 60 221 12.0 22.0 0.00 0.00 0.00 27 1011.9
20260502190304 61 252 6.0 16.0 0.00 0.00 0.00 27 1011.9
20260502185804 61 203 3.0 16.0 0.00 0.00 0.00 27 1011.9
20260502185305 61 217 3.0 13.0 0.00 0.00 0.00 25 1011.9
20260502184805 61 282 7.0 14.0 0.00 0.00 0.00 26 1011.9
20260502184305 60 246 6.0 9.0 0.00 0.00 0.00 27 1011.9
20260502183804 61 272 6.0 12.0 0.00 0.00 0.00 26 1011.9
20260502183305 60 245 7.0 17.0 0.00 0.00 0.00 26 1011.9
20260502182305 60 288 5.0 15.0 0.00 0.00 0.00 28 1011.9
20260502181804 60 296 5.0 18.0 0.00 0.00 0.00 26 1011.9
20260502181304 59 235 5.0 12.0 0.00 0.00 0.00 26 1011.9
20260502180305 59 312 7.0 14.0 0.00 0.00 0.00 30 1011.9
20260502170305 57 253 5.0 12.0 0.00 0.00 0.00 27 1011.9
20260502164305 56 253 8.0 15.0 0.00 0.00 0.00 28 1011.9
20260502163304 56 238 4.0 8.0 0.00 0.00 0.00 30 1011.9
20260502162805 56 328 5.0 10.0 0.00 0.00 0.00 31 1011.9
20260502162305 56 334 4.0 18.0 0.00 0.00 0.00 31 1011.9
20260502161804 56 302 3.0 13.0 0.00 0.00 0.00 32 1011.9
20260502161305 56 287 4.0 13.0 0.00 0.00 0.00 29 1011.9
20260502160804 55 290 5.0 13.0 0.00 0.00 0.00 31 1011.9
20260502160305 55 303 6.0 14.0 0.00 0.00 0.00 35 1011.9
20260502151804 52 265 3.0 10.0 0.00 0.00 0.00 39 1011.9
20260502150805 52 262 3.0 9.0 0.00 0.00 0.00 40 1011.9
20260502150304 51 328 3.0 7.0 0.00 0.00 0.00 41 1011.9
20260502130304 40 232 3.0 7.0 0.00 0.00 0.00 59 1011.9
20260502123804 38 221 3.0 7.0 0.00 0.00 0.00 60 1011.9
20260502122804 37 223 3.0 6.0 0.00 0.00 0.00 62 1011.9
20260502122306 37 207 2.0 6.0 0.00 0.00 0.00 63 1011.9
20260502121804 36 237 4.0 7.0 0.00 0.00 0.00 63 1011.9
20260502121304 36 221 3.0 6.0 0.00 0.00 0.00 63 1011.9
20260502120304 36 237 3.0 6.0 0.00 0.00 0.00 65 1011.9
20260502115804 35 214 3.0 6.0 0.00 0.00 0.00 66 1011.9
20260502115306 35 221 3.0 6.0 0.00 0.00 0.00 67 1011.9
20260502114805 35 220 3.0 7.0 0.00 0.00 0.00 68 1011.9
20260502114305 35 225 3.0 5.0 0.00 0.00 0.00 69 1011.9
20260502113804 34 235 3.0 5.0 0.00 0.00 0.00 71 1011.9
20260502113304 34 234 3.0 3.0 0.00 0.00 0.00 72 1011.9
20260502112804 34 176 2.0 3.0 0.00 0.00 0.00 72 1011.9
20260502112306 34 186 2.0 3.0 0.00 0.00 0.00 72 1011.9
20260502111805 34 193 2.0 3.0 0.00 0.00 0.00 71 1011.9
20260502111303 34 196 2.0 3.0 0.00 0.00 0.00 70 1011.9
20260502110804 34 192 2.0 5.0 0.00 0.00 0.00 70 1011.9
20260502110304 34 204 2.0 5.0 0.00 0.00 0.00 69 1011.9
20260502105804 34 208 2.0 3.0 0.00 0.00 0.00 70 1011.9
20260502105306 34 186 2.0 3.0 0.00 0.00 0.00 71 1011.9
20260502104804 34 164 2.0 3.0 0.00 0.00 0.00 70 1011.9
20260502104304 34 189 2.0 3.0 0.00 0.00 0.00 70 1011.9
20260502103804 35 180 2.0 3.0 0.00 0.00 0.00 67 1011.9
20260502103304 35 169 2.0 5.0 0.00 0.00 0.00 64 1011.9
20260502102306 37 159 3.0 6.0 0.00 0.00 0.00 59 1011.9
20260502101304 38 169 3.0 6.0 0.00 0.00 0.00 57 1011.9
20260502100804 38 158 3.0 7.0 0.00 0.00 0.00 56 1011.9
20260502100304 38 163 4.0 7.0 0.00 0.00 0.00 56 1011.9
20260502091304 37 184 4.0 8.0 0.00 0.00 0.00 54 1011.9
20260502090804 37 146 5.0 10.0 0.00 0.00 0.00 55 1011.9
20260502090304 37 156 4.0 8.0 0.00 0.00 0.00 57 1011.9
20260502071304 37 122 2.0 3.0 0.00 0.00 0.00 63 1011.9
20260502070804 37 131 1.0 2.0 0.00 0.00 0.00 65 1011.9
20260502070304 37 148 1.0 3.0 0.00 0.00 0.00 65 1011.9
20260502065804 37 191 2.0 2.0 0.00 0.00 0.00 62 1011.9
20260502065306 37 225 2.0 2.0 0.00 0.00 0.00 62 1011.9
20260502064804 38 153 1.0 2.0 0.00 0.00 0.00 61 1011.9
20260502064304 39 135 1.0 3.0 0.00 0.00 0.00 61 1011.9
20260502063803 39 95 2.0 5.0 0.00 0.00 0.00 61 1011.9
20260502063304 40 130 2.0 5.0 0.00 0.00 0.00 58 1011.9
20260502062804 40 124 2.0 5.0 0.00 0.00 0.00 58 1011.9
20260502062306 40 113 2.0 5.0 0.00 0.00 0.00 53 1011.9
20260502061305 40 111 2.0 6.0 0.00 0.00 0.00 51 1011.9
20260502060805 40 110 2.0 6.0 0.00 0.00 0.00 51 1011.9
20260502060305 40 120 3.0 5.0 0.00 0.00 0.00 51 1011.9
20260502055306 40 141 2.0 7.0 0.00 0.00 0.00 52 1011.9
20260502054805 40 105 3.0 7.0 0.00 0.00 0.00 52 1011.9
20260502054306 40 131 2.0 6.0 0.00 0.00 0.00 52 1011.9
20260502053805 40 113 2.0 5.0 0.00 0.00 0.00 52 1011.9
20260502053305 41 133 2.0 5.0 0.00 0.00 0.00 52 1011.9
20260502052806 40 127 2.0 3.0 0.00 0.00 0.00 52 1011.9
20260502052306 40 135 2.0 3.0 0.00 0.00 0.00 51 1011.9
20260502051806 40 142 2.0 3.0 0.00 0.00 0.00 51 1011.9
20260502051307 41 124 2.0 3.0 0.00 0.00 0.00 51 1011.9
20260502050818 41 119 1.0 2.0 0.00 0.00 0.00 51 1011.9
20260502045805 41 121 2.0 2.0 0.00 0.00 0.00 51 1011.9
20260502045306 41 86 1.0 2.0 0.00 0.00 0.00 52 1011.9
20260502044805 41 64 1.0 1.0 0.00 0.00 0.00 53 1011.9
20260502044305 41 70 2.0 3.0 0.00 0.00 0.00 54 1011.9
20260502043805 42 31 1.0 2.0 0.00 0.00 0.00 51 1011.9
20260502043306 42 167 1.0 2.0 0.00 0.00 0.00 51 1011.9
20260502042805 43 173 0.0 1.0 0.00 0.00 0.00 53 1011.9
20260502042306 43 142 0.0 0.0 0.00 0.00 0.00 49 1011.9
20260502041305 43 143 1.0 2.0 0.00 0.00 0.00 51 1011.9
20260502040805 43 146 1.0 2.0 0.00 0.00 0.00 50 1011.9
20260502040306 43 149 1.0 2.0 0.00 0.00 0.00 49 1011.9
20260502035805 43 146 1.0 2.0 0.00 0.00 0.00 49 1011.9
20260502035306 43 170 1.0 2.0 0.00 0.00 0.00 47 1011.9
20260502034805 43 141 1.0 2.0 0.00 0.00 0.00 48 1011.9
20260502034306 44 153 2.0 2.0 0.00 0.00 0.00 47 1011.9
20260502033304 44 152 1.0 3.0 0.00 0.00 0.00 45 1011.9
20260502032805 44 175 1.0 3.0 0.00 0.00 0.00 42 1011.9
20260502032306 44 129 2.0 3.0 0.00 0.00 0.00 42 1011.9
20260502031805 44 134 2.0 3.0 0.00 0.00 0.00 42 1011.9
20260502031305 44 140 2.0 3.0 0.00 0.00 0.00 42 1011.9
20260502030805 44 144 2.0 5.0 0.00 0.00 0.00 43 1011.9
20260502030305 44 134 2.0 3.0 0.00 0.00 0.00 42 1011.9
20260502025805 44 118 1.0 2.0 0.00 0.00 0.00 42 1011.9
20260502025306 44 126 1.0 2.0 0.00 0.00 0.00 42 1011.9
20260502024805 44 111 1.0 2.0 0.00 0.00 0.00 44 1011.9
20260502024305 44 89 1.0 1.0 0.00 0.00 0.00 44 1011.9
20260502023805 44 5 1.0 1.0 0.00 0.00 0.00 44 1011.9
20260502023305 44 63 1.0 2.0 0.00 0.00 0.00 41 1011.9
20260502022805 45 77 0.0 1.0 0.00 0.00 0.00 43 1011.9
20260502021306 46 95 1.0 3.0 0.00 0.00 0.00 41 1011.9
20260502020805 45 346 1.0 2.0 0.00 0.00 0.00 43 1011.9